Time,TemperatureF,DewpointF,PressureIn,WindDirection,WindDirectionDegrees,WindSpeedMPH,WindSpeedGustMPH,Humidity,HourlyPrecipIn,Conditions,Clouds,dailyrainin,SoftwareType,DateUTC
2013-09-30 00:00:00,81.3,77.0,30.00,NNW,337,2.2,4.0,88,0.00,,,0.00,Graphweather,2013-09-30 04:00:00,
2013-09-30 00:05:00,81.3,77.0,30.00,ENE,67,2.2,4.0,88,0.00,,,0.00,Graphweather,2013-09-30 04:05:00,
2013-09-30 00:10:00,81.5,78.8,30.00,ENE,67,2.7,6.3,90,0.00,,,0.00,Graphweather,2013-09-30 04:10:00,
2013-09-30 00:15:00,81.3,78.8,30.03,ESE,112,2.5,5.4,90,0.00,,,0.00,Graphweather,2013-09-30 04:15:00,
2013-09-30 00:20:00,81.3,78.8,30.03,ESE,112,2.7,5.8,90,0.00,,,0.00,Graphweather,2013-09-30 04:20:00,
2013-09-30 00:25:00,81.3,78.8,30.03,ESE,112,2.5,3.6,90,0.00,,,0.00,Graphweather,2013-09-30 04:25:00,
2013-09-30 00:30:00,81.1,78.8,30.00,ESE,112,2.5,3.8,90,0.00,,,0.00,Graphweather,2013-09-30 04:30:00,
2013-09-30 00:35:00,81.1,78.8,30.00,East,90,2.2,3.8,90,0.00,,,0.00,Graphweather,2013-09-30 04:35:00,
2013-09-30 00:40:00,81.1,78.8,30.00,SSW,202,3.4,5.4,90,0.00,,,0.00,Graphweather,2013-09-30 04:40:00,
2013-09-30 00:50:00,81.1,78.8,30.00,East,90,2.7,3.8,90,0.00,,,0.00,Graphweather,2013-09-30 04:50:00,
2013-09-30 00:55:00,81.1,78.8,30.00,SE,135,2.9,4.0,90,0.00,,,0.00,Graphweather,2013-09-30 04:55:00,
2013-09-30 01:00:00,81.1,78.8,29.97,East,90,3.1,4.9,90,0.00,,,0.00,Graphweather,2013-09-30 05:00:00,
2013-09-30 01:05:00,81.1,78.8,29.97,ENE,67,2.9,5.4,90,0.00,,,0.00,Graphweather,2013-09-30 05:05:00,
2013-09-30 01:10:00,81.1,78.8,29.97,ESE,112,1.6,4.7,90,0.00,,,0.00,Graphweather,2013-09-30 05:10:00,
2013-09-30 01:15:00,81.1,78.8,29.97,ENE,67,2.5,4.0,91,0.00,,,0.00,Graphweather,2013-09-30 05:15:00,
2013-09-30 01:20:00,81.0,78.8,29.97,SSW,202,2.9,3.6,90,0.00,,,0.00,Graphweather,2013-09-30 05:20:00,
2013-09-30 01:25:00,81.0,78.8,29.97,North,0,1.6,4.9,90,0.00,,,0.00,Graphweather,2013-09-30 05:25:00,
2013-09-30 01:35:00,80.8,77.0,29.97,East,90,1.6,4.3,90,0.00,,,0.00,Graphweather,2013-09-30 05:35:00,
2013-09-30 01:40:00,80.8,77.0,29.97,ESE,112,2.5,5.4,90,0.00,,,0.00,Graphweather,2013-09-30 05:40:00,
2013-09-30 01:45:00,80.8,77.0,29.97,East,90,2.0,3.8,90,0.00,,,0.00,Graphweather,2013-09-30 05:45:00,
2013-09-30 01:50:00,80.6,78.8,29.97,NE,45,2.7,4.3,91,0.00,,,0.00,Graphweather,2013-09-30 05:50:00,
2013-09-30 01:55:00,80.6,77.0,29.97,SE,135,2.5,3.8,90,0.00,,,0.00,Graphweather,2013-09-30 05:55:00,
2013-09-30 02:00:00,80.6,77.0,29.94,East,90,2.2,3.1,90,0.00,,,0.00,Graphweather,2013-09-30 06:00:00,
2013-09-30 02:05:00,80.8,78.8,29.94,South,180,1.6,4.0,91,0.00,,,0.00,Graphweather,2013-09-30 06:05:00,
2013-09-30 02:10:00,80.8,78.8,29.94,North,0,2.2,5.4,91,0.00,,,0.00,Graphweather,2013-09-30 06:10:00,
2013-09-30 02:15:00,80.8,78.8,29.94,East,90,1.3,4.7,91,0.00,,,0.00,Graphweather,2013-09-30 06:15:00,
2013-09-30 02:20:00,80.8,78.8,29.94,ENE,67,2.2,6.0,91,0.00,,,0.00,Graphweather,2013-09-30 06:20:00,
2013-09-30 02:30:00,80.8,78.8,29.94,ESE,112,1.6,4.0,91,0.00,,,0.00,Graphweather,2013-09-30 06:30:00,
2013-09-30 02:35:00,80.8,78.8,29.94,East,90,2.5,3.4,91,0.00,,,0.00,Graphweather,2013-09-30 06:35:00,
2013-09-30 02:40:00,81.0,78.8,29.94,ESE,112,2.5,3.8,91,0.00,,,0.00,Graphweather,2013-09-30 06:40:00,
2013-09-30 02:45:00,80.8,78.8,29.94,SSE,157,2.2,4.9,91,0.00,,,0.00,Graphweather,2013-09-30 06:45:00,
2013-09-30 02:50:00,80.8,78.8,29.94,East,90,2.9,3.6,91,0.00,,,0.00,Graphweather,2013-09-30 06:50:00,
2013-09-30 02:55:00,81.0,78.8,29.94,ESE,112,3.1,4.3,91,0.00,,,0.00,Graphweather,2013-09-30 06:55:00,
2013-09-30 03:00:00,81.0,78.8,29.94,NNE,22,2.2,3.8,91,0.00,,,0.00,Graphweather,2013-09-30 07:00:00,
2013-09-30 03:05:00,80.8,78.8,29.94,East,90,2.9,3.8,91,0.00,,,0.00,Graphweather,2013-09-30 07:05:00,
2013-09-30 03:10:00,80.8,78.8,29.94,South,180,2.5,4.9,91,0.00,,,0.00,Graphweather,2013-09-30 07:10:00,
2013-09-30 03:15:00,81.0,78.8,29.91,East,90,2.7,6.3,92,0.00,,,0.00,Graphweather,2013-09-30 07:15:00,
2013-09-30 03:20:00,81.0,78.8,29.91,East,90,3.1,4.0,92,0.00,,,0.00,Graphweather,2013-09-30 07:20:00,
2013-09-30 03:25:00,80.8,78.8,29.91,ESE,112,1.6,3.6,91,0.00,,,0.00,Graphweather,2013-09-30 07:25:00,
2013-09-30 03:30:00,80.8,78.8,29.97,ESE,112,2.5,4.9,91,0.00,,,0.00,Graphweather,2013-09-30 07:30:00,
2013-09-30 03:40:00,80.8,78.8,29.97,SE,135,2.0,3.8,91,0.00,,,0.00,Graphweather,2013-09-30 07:40:00,
2013-09-30 03:45:00,80.8,78.8,29.91,East,90,2.5,4.0,91,0.00,,,0.00,Graphweather,2013-09-30 07:45:00,
2013-09-30 03:50:00,80.6,78.8,29.91,ESE,112,3.1,6.9,91,0.00,,,0.00,Graphweather,2013-09-30 07:50:00,
2013-09-30 03:55:00,80.6,78.8,29.91,SE,135,2.5,5.6,91,0.00,,,0.00,Graphweather,2013-09-30 07:55:00,
2013-09-30 04:00:00,80.6,78.8,29.94,SE,135,2.5,3.6,91,0.00,,,0.00,Graphweather,2013-09-30 08:00:00,
2013-09-30 04:05:00,80.6,78.8,29.94,East,90,2.0,4.0,92,0.00,,,0.00,Graphweather,2013-09-30 08:05:00,
2013-09-30 04:10:00,80.6,78.8,29.94,East,90,2.5,4.0,92,0.00,,,0.00,Graphweather,2013-09-30 08:10:00,
2013-09-30 04:15:00,80.6,78.8,29.94,SE,135,2.5,4.9,92,0.00,,,0.00,Graphweather,2013-09-30 08:15:00,
2013-09-30 04:20:00,80.8,78.8,29.94,SE,135,2.2,4.9,91,0.00,,,0.00,Graphweather,2013-09-30 08:20:00,
2013-09-30 04:25:00,80.8,78.8,29.94,ESE,112,2.5,6.5,92,0.00,,,0.00,Graphweather,2013-09-30 08:25:00,
2013-09-30 04:30:00,80.8,78.8,29.94,East,90,2.5,5.6,91,0.00,,,0.00,Graphweather,2013-09-30 08:30:00,
2013-09-30 04:35:00,80.8,78.8,29.94,ENE,67,2.9,5.4,92,0.00,,,0.00,Graphweather,2013-09-30 08:35:00,
2013-09-30 04:45:00,80.6,78.8,29.94,NNE,22,2.0,4.7,92,0.00,,,0.00,Graphweather,2013-09-30 08:45:00,
2013-09-30 04:50:00,80.6,78.8,29.94,NNE,22,2.0,3.6,92,0.00,,,0.00,Graphweather,2013-09-30 08:50:00,
2013-09-30 04:55:00,80.4,78.8,29.94,SE,135,2.9,4.0,92,0.00,,,0.00,Graphweather,2013-09-30 08:55:00,
2013-09-30 05:00:00,80.4,78.8,29.94,ESE,112,2.0,4.0,92,0.00,,,0.00,Graphweather,2013-09-30 09:00:00,
2013-09-30 05:05:00,80.4,78.8,29.94,SSE,157,2.5,3.6,92,0.00,,,0.00,Graphweather,2013-09-30 09:05:00,
2013-09-30 05:10:00,80.4,78.8,29.94,SE,135,1.6,5.6,91,0.00,,,0.00,Graphweather,2013-09-30 09:10:00,
2013-09-30 05:15:00,80.4,78.8,29.94,East,90,3.1,5.8,92,0.00,,,0.00,Graphweather,2013-09-30 09:15:00,
2013-09-30 05:20:00,80.4,78.8,29.94,East,90,2.0,3.6,92,0.00,,,0.00,Graphweather,2013-09-30 09:20:00,
2013-09-30 05:25:00,80.4,78.8,29.94,ESE,112,2.0,4.3,92,0.00,,,0.00,Graphweather,2013-09-30 09:25:00,
2013-09-30 05:35:00,80.4,78.8,29.91,SE,135,2.2,4.3,92,0.00,,,0.00,Graphweather,2013-09-30 09:35:00,
2013-09-30 05:40:00,80.4,78.8,29.91,East,90,1.6,3.4,92,0.00,,,0.00,Graphweather,2013-09-30 09:40:00,
2013-09-30 05:45:00,80.4,78.8,29.94,East,90,2.5,5.6,92,0.00,,,0.00,Graphweather,2013-09-30 09:45:00,
2013-09-30 05:50:00,80.4,78.8,29.94,East,90,2.7,4.9,92,0.00,,,0.00,Graphweather,2013-09-30 09:50:00,
2013-09-30 05:55:00,80.4,78.8,29.94,ENE,67,2.2,3.8,92,0.00,,,0.00,Graphweather,2013-09-30 09:55:00,
2013-09-30 06:00:00,80.4,78.8,29.94,SE,135,2.7,3.4,92,0.00,,,0.00,Graphweather,2013-09-30 10:00:00,
2013-09-30 06:05:00,80.6,78.8,29.94,East,90,2.5,3.6,92,0.00,,,0.00,Graphweather,2013-09-30 10:05:00,
2013-09-30 06:10:00,80.6,78.8,29.94,East,90,2.2,4.3,92,0.00,,,0.00,Graphweather,2013-09-30 10:10:00,
2013-09-30 06:15:00,80.8,78.8,29.94,East,90,2.7,4.7,92,0.00,,,0.00,Graphweather,2013-09-30 10:15:00,
2013-09-30 06:20:00,81.1,78.8,29.94,East,90,3.4,4.3,92,0.00,,,0.00,Graphweather,2013-09-30 10:20:00,
2013-09-30 06:25:00,81.7,78.8,29.94,ENE,67,2.0,4.3,91,0.00,,,0.00,Graphweather,2013-09-30 10:25:00,
2013-09-30 06:35:00,82.8,80.6,29.94,SSE,157,2.5,4.9,90,0.00,,,0.00,Graphweather,2013-09-30 10:35:00,
2013-09-30 06:40:00,82.8,80.6,29.94,SSE,157,2.5,3.8,89,0.00,,,0.00,Graphweather,2013-09-30 10:40:00,
2013-09-30 06:45:00,82.9,80.6,29.97,NNE,22,1.1,3.8,89,0.00,,,0.00,Graphweather,2013-09-30 10:45:00,
2013-09-30 06:50:00,83.3,80.6,29.97,SE,135,2.2,2.9,89,0.00,,,0.00,Graphweather,2013-09-30 10:50:00,
2013-09-30 06:55:00,84.2,80.6,29.97,East,90,2.9,5.6,88,0.00,,,0.00,Graphweather,2013-09-30 10:55:00,
2013-09-30 07:00:00,84.9,80.6,30.00,East,90,2.7,3.4,87,0.00,,,0.00,Graphweather,2013-09-30 11:00:00,
2013-09-30 07:05:00,84.6,80.6,30.00,ESE,112,1.6,3.1,86,0.00,,,0.00,Graphweather,2013-09-30 11:05:00,
2013-09-30 07:10:00,84.7,80.6,30.00,NNE,22,2.5,4.0,87,0.00,,,0.00,Graphweather,2013-09-30 11:10:00,
2013-09-30 07:15:00,85.6,80.6,29.97,ESE,112,2.2,3.6,86,0.00,,,0.00,Graphweather,2013-09-30 11:15:00,
2013-09-30 07:20:00,86.4,82.4,29.97,East,90,2.7,5.4,85,0.00,,,0.00,Graphweather,2013-09-30 11:20:00,
2013-09-30 07:25:00,87.8,82.4,29.97,NNE,22,2.0,4.7,82,0.00,,,0.00,Graphweather,2013-09-30 11:25:00,
2013-09-30 07:35:00,89.1,80.6,29.97,East,90,2.7,4.0,77,0.00,,,0.00,Graphweather,2013-09-30 11:35:00,
2013-09-30 07:40:00,89.8,80.6,29.97,East,90,2.2,6.0,76,0.00,,,0.00,Graphweather,2013-09-30 11:40:00,
2013-09-30 07:45:00,90.5,82.4,30.00,NE,45,2.9,4.9,75,0.00,,,0.00,Graphweather,2013-09-30 11:45:00,
2013-09-30 07:50:00,90.5,82.4,30.00,East,90,1.3,3.6,74,0.00,,,0.00,Graphweather,2013-09-30 11:50:00,
2013-09-30 07:55:00,90.1,80.6,30.00,ESE,112,2.7,4.3,73,0.00,,,0.00,Graphweather,2013-09-30 11:55:00,
2013-09-30 08:00:00,91.9,82.4,30.00,ESE,112,2.2,3.8,73,0.00,,,0.00,Graphweather,2013-09-30 12:00:00,
2013-09-30 08:05:00,91.4,82.4,30.00,East,90,2.7,4.3,72,0.00,,,0.00,Graphweather,2013-09-30 12:05:00,
2013-09-30 08:10:00,90.9,80.6,30.00,East,90,3.1,5.6,72,0.00,,,0.00,Graphweather,2013-09-30 12:10:00,
2013-09-30 08:15:00,91.8,80.6,30.00,NE,45,2.7,4.7,71,0.00,,,0.00,Graphweather,2013-09-30 12:15:00,
2013-09-30 08:25:00,90.1,82.4,30.00,East,90,2.5,4.3,77,0.00,,,0.00,Graphweather,2013-09-30 12:25:00,
2013-09-30 08:30:00,90.0,82.4,30.00,East,90,2.5,4.9,76,0.00,,,0.00,Graphweather,2013-09-30 12:30:00,
2013-09-30 08:35:00,91.9,82.4,30.00,East,90,2.5,4.3,72,0.00,,,0.00,Graphweather,2013-09-30 12:35:00,
2013-09-30 08:40:00,92.5,80.6,30.00,East,90,2.0,3.8,70,0.00,,,0.00,Graphweather,2013-09-30 12:40:00,
2013-09-30 08:45:00,92.8,80.6,30.00,ESE,112,2.7,5.4,70,0.00,,,0.00,Graphweather,2013-09-30 12:45:00,
2013-09-30 08:50:00,91.2,82.4,30.00,East,90,2.5,6.9,72,0.00,,,0.00,Graphweather,2013-09-30 12:50:00,
2013-09-30 08:55:00,91.8,82.4,30.00,East,90,2.7,5.6,72,0.00,,,0.00,Graphweather,2013-09-30 12:55:00,
2013-09-30 09:00:00,90.9,80.6,29.97,East,90,2.9,5.4,72,0.00,,,0.00,Graphweather,2013-09-30 13:00:00,
2013-09-30 09:05:00,90.5,80.6,29.97,East,90,2.5,5.6,72,0.00,,,0.00,Graphweather,2013-09-30 13:05:00,
2013-09-30 09:10:00,91.0,80.6,29.97,ESE,112,3.4,5.8,73,0.00,,,0.00,Graphweather,2013-09-30 13:10:00,
2013-09-30 09:15:00,92.7,82.4,30.00,SSE,157,2.2,3.8,71,0.00,,,0.00,Graphweather,2013-09-30 13:15:00,
2013-09-30 09:20:00,94.6,82.4,30.00,ESE,112,3.1,6.3,69,0.00,,,0.00,Graphweather,2013-09-30 13:20:00,
2013-09-30 09:25:00,95.0,82.4,30.00,SSW,202,2.7,4.9,66,0.00,,,0.00,Graphweather,2013-09-30 13:25:00,
2013-09-30 09:35:00,96.3,82.4,30.03,East,90,3.6,6.0,64,0.00,,,0.00,Graphweather,2013-09-30 13:35:00,
2013-09-30 09:40:00,96.6,82.4,30.03,SE,135,3.4,5.8,62,0.00,,,0.00,Graphweather,2013-09-30 13:40:00,
2013-09-30 09:45:00,97.5,80.6,29.97,East,90,2.0,4.9,60,0.00,,,0.00,Graphweather,2013-09-30 13:45:00,
2013-09-30 09:50:00,97.2,80.6,29.97,ESE,112,2.9,4.9,60,0.00,,,0.00,Graphweather,2013-09-30 13:50:00,
2013-09-30 09:55:00,97.7,80.6,29.97,East,90,2.9,4.9,59,0.00,,,0.00,Graphweather,2013-09-30 13:55:00,
2013-09-30 10:00:00,97.7,80.6,30.00,East,90,2.5,6.3,59,0.00,,,0.00,Graphweather,2013-09-30 14:00:00,
2013-09-30 10:05:00,98.4,80.6,30.00,ENE,67,3.4,6.0,57,0.00,,,0.00,Graphweather,2013-09-30 14:05:00,
2013-09-30 10:10:00,99.0,80.6,30.00,East,90,3.1,5.8,55,0.00,,,0.00,Graphweather,2013-09-30 14:10:00,
2013-09-30 10:15:00,99.1,80.6,29.97,East,90,3.8,6.0,55,0.00,,,0.00,Graphweather,2013-09-30 14:15:00,
2013-09-30 10:20:00,98.6,78.8,29.97,East,90,3.1,6.0,54,0.00,,,0.00,Graphweather,2013-09-30 14:20:00,
2013-09-30 10:25:00,99.1,80.6,29.97,ENE,67,2.9,6.0,55,0.00,,,0.00,Graphweather,2013-09-30 14:25:00,
2013-09-30 10:30:00,99.1,80.6,29.97,East,90,2.7,5.6,55,0.00,,,0.00,Graphweather,2013-09-30 14:30:00,
2013-09-30 10:40:00,99.9,80.6,29.97,ESE,112,2.7,4.7,53,0.00,,,0.00,Graphweather,2013-09-30 14:40:00,
2013-09-30 10:45:00,99.7,80.6,29.97,East,90,3.1,4.3,54,0.00,,,0.00,Graphweather,2013-09-30 14:45:00,
2013-09-30 10:50:00,99.9,80.6,29.97,ESE,112,2.5,4.0,55,0.00,,,0.00,Graphweather,2013-09-30 14:50:00,
2013-09-30 10:55:00,99.9,80.6,29.97,East,90,2.5,5.4,54,0.00,,,0.00,Graphweather,2013-09-30 14:55:00,
2013-09-30 11:00:00,99.3,80.6,29.97,ESE,112,2.7,5.8,54,0.00,,,0.00,Graphweather,2013-09-30 15:00:00,
2013-09-30 11:05:00,99.3,80.6,29.97,SE,135,2.9,3.8,54,0.00,,,0.00,Graphweather,2013-09-30 15:05:00,
2013-09-30 11:10:00,99.3,80.6,29.97,East,90,3.1,5.4,54,0.00,,,0.00,Graphweather,2013-09-30 15:10:00,
2013-09-30 11:15:00,100.0,80.6,30.00,ESE,112,3.1,5.6,53,0.00,,,0.00,Graphweather,2013-09-30 15:15:00,
2013-09-30 11:20:00,99.9,78.8,30.00,ESE,112,4.3,5.6,52,0.00,,,0.00,Graphweather,2013-09-30 15:20:00,
2013-09-30 11:25:00,99.9,78.8,30.00,SE,135,2.9,6.0,52,0.00,,,0.00,Graphweather,2013-09-30 15:25:00,
2013-09-30 11:30:00,99.3,80.6,30.00,NE,45,2.5,7.4,54,0.00,,,0.00,Graphweather,2013-09-30 15:30:00,
2013-09-30 11:35:00,100.2,80.6,30.00,East,90,2.9,5.8,53,0.00,,,0.00,Graphweather,2013-09-30 15:35:00,
2013-09-30 11:45:00,99.3,78.8,30.00,SE,135,2.9,5.8,53,0.00,,,0.00,Graphweather,2013-09-30 15:45:00,
2013-09-30 11:50:00,99.9,80.6,30.00,East,90,2.5,4.0,53,0.00,,,0.00,Graphweather,2013-09-30 15:50:00,
2013-09-30 11:55:00,100.4,80.6,30.00,North,0,3.4,5.4,52,0.00,,,0.00,Graphweather,2013-09-30 15:55:00,
2013-09-30 12:00:00,99.5,78.8,30.00,East,90,3.8,4.9,52,0.00,,,0.00,Graphweather,2013-09-30 16:00:00,
2013-09-30 12:05:00,99.3,78.8,30.00,ESE,112,4.0,7.2,53,0.00,,,0.00,Graphweather,2013-09-30 16:05:00,
2013-09-30 12:10:00,99.7,78.8,30.00,ESE,112,3.1,4.7,52,0.00,,,0.00,Graphweather,2013-09-30 16:10:00,
2013-09-30 12:15:00,99.7,80.6,30.00,SE,135,2.0,4.7,53,0.00,,,0.00,Graphweather,2013-09-30 16:15:00,
2013-09-30 12:20:00,99.1,80.6,30.00,East,90,2.9,5.6,54,0.00,,,0.00,Graphweather,2013-09-30 16:20:00,
2013-09-30 12:25:00,98.8,78.8,30.00,East,90,2.5,5.6,55,0.00,,,0.00,Graphweather,2013-09-30 16:25:00,
2013-09-30 12:30:00,98.2,78.8,29.97,ESE,112,2.9,4.9,56,0.00,,,0.00,Graphweather,2013-09-30 16:30:00,
2013-09-30 12:35:00,98.4,80.6,29.97,ESE,112,2.2,3.6,57,0.00,,,0.00,Graphweather,2013-09-30 16:35:00,
2013-09-30 12:40:00,97.9,80.6,29.97,East,90,2.9,4.3,57,0.00,,,0.00,Graphweather,2013-09-30 16:40:00,
2013-09-30 12:45:00,98.2,80.6,29.97,NE,45,2.5,6.3,57,0.00,,,0.00,Graphweather,2013-09-30 16:45:00,
2013-09-30 12:55:00,99.9,80.6,29.97,East,90,2.9,4.9,55,0.00,,,0.00,Graphweather,2013-09-30 16:55:00,
2013-09-30 13:05:00,99.7,80.6,29.97,ENE,67,2.9,5.4,54,0.00,,,0.00,Graphweather,2013-09-30 17:05:00,
2013-09-30 13:10:00,99.3,80.6,29.97,NNE,22,3.8,6.3,55,0.00,,,0.00,Graphweather,2013-09-30 17:10:00,
2013-09-30 13:20:00,99.9,78.8,29.97,East,90,2.2,4.7,52,0.00,,,0.00,Graphweather,2013-09-30 17:20:00,
2013-09-30 13:25:00,97.5,80.6,29.97,ESE,112,3.4,6.9,58,0.00,,,0.00,Graphweather,2013-09-30 17:25:00,
2013-09-30 13:30:00,95.9,80.6,29.97,ENE,67,4.3,7.2,62,0.00,,,0.00,Graphweather,2013-09-30 17:30:00,